Location: Paddlesworth
(51.1000°N, 1.1333°E)
Time: 07:00:05
(UTC+00:00)

ATLAS CENTAUR R/B - Pass Details

Date: 11 May 2021
Orbit: 472 x 671 km, 64.6° (Epoch: 13 June)

Event Time Altitude Azimuth Distance (km) Brightness Sun altitude
Exits shadow 23:38:19 23° 93° (E) 1,071 2.7 -20.7°
Drops below altitude 10° 23:40:34 10° 61° (ENE) 1,708 4.1 -20.7°
Sets 23:43:00 0° 49° (NE) 2,627 5.3 -20.7°
